This is the latest recevied weather packets stored in our database for station/object KC5DAQ-27. If no packets are shown the sender has not sent any weather packets the latest 1 day(s).
| Time | Temp. | Humidity | Pressure | Rain* | Wind** | Luminosity | Snow |
|---|---|---|---|---|---|---|---|
| 1777994343 | 24.44° C | 91% | 1000.7 hPa | 0 mm | 2.24 m/s, 216° | 183 W/m² | - |
| 1777994283 | 24.44° C | 91% | 1000.7 hPa | 0 mm | 2.24 m/s, 190° | 186 W/m² | - |
| 1777994222 | 24.44° C | 91% | 1000.7 hPa | 0 mm | 2.68 m/s, 216° | 188 W/m² | - |
| 1777994163 | 24.44° C | 91% | 1000.7 hPa | 0 mm | 3.58 m/s, 189° | 155 W/m² | - |
| 1777994102 | 24.44° C | 91% | 1000.8 hPa | 0 mm | 3.13 m/s, 171° | 164 W/m² | - |
| 1777994042 | 24.44° C | 91% | 1000.7 hPa | 0 mm | 2.24 m/s, 182° | 169 W/m² | - |
| 1777993982 | 23.89° C | 91% | 1000.7 hPa | 0 mm | 1.79 m/s, 161° | 141 W/m² | - |
| 1777993923 | 23.89° C | 91% | 1000.7 hPa | 0 mm | 2.68 m/s, 140° | 141 W/m² | - |
| 1777993863 | 23.89° C | 91% | 1000.7 hPa | 0 mm | 3.13 m/s, 195° | 157 W/m² | - |
| 1777993797 | 23.89° C | 91% | 1000.7 hPa | 0 mm | 3.13 m/s, 197° | 192 W/m² | - |
| 1777993735 | 23.89° C | 91% | 1000.8 hPa | 0 mm | 3.58 m/s, 207° | 192 W/m² | - |
| 1777993674 | 23.89° C | 91% | 1000.7 hPa | 0 mm | 3.13 m/s, 179° | 208 W/m² | - |
| 1777993609 | 23.89° C | 91% | 1000.7 hPa | 0 mm | 3.13 m/s, 192° | 199 W/m² | - |
| 1777993548 | 23.89° C | 91% | 1000.7 hPa | 0 mm | 3.58 m/s, 172° | 176 W/m² | - |
| 1777993488 | 23.89° C | 91% | 1000.7 hPa | 0 mm | 4.92 m/s, 172° | 169 W/m² | - |
| 1777993426 | 23.89° C | 91% | 1000.7 hPa | 0 mm | 4.92 m/s, 173° | 176 W/m² | - |
| 1777993364 | 23.89° C | 91% | 1000.6 hPa | 0 mm | 3.58 m/s, 209° | 174 W/m² | - |
| 1777993303 | 23.89° C | 91% | 1000.6 hPa | 0 mm | 2.24 m/s, 173° | 153 W/m² | - |
| 1777993242 | 23.89° C | 91% | 1000.6 hPa | 0 mm | 2.24 m/s, 196° | 153 W/m² | - |
| 1777993181 | 23.89° C | 91% | 1000.6 hPa | 0 mm | 2.68 m/s, 199° | 88 W/m² | - |
| 1777993119 | 23.89° C | 91% | 1000.7 hPa | 0 mm | 3.58 m/s, 193° | 79 W/m² | - |
| 1777993058 | 23.89° C | 91% | 1000.6 hPa | 0 mm | 3.13 m/s, 169° | 88 W/m² | - |
| 1777992996 | 23.89° C | 91% | 1000.6 hPa | 0 mm | 3.13 m/s, 176° | 90 W/m² | - |
| 1777992935 | 23.89° C | 91% | 1000.7 hPa | 0 mm | 3.58 m/s, 176° | 83 W/m² | - |
| 1777992873 | 23.89° C | 91% | 1000.6 hPa | 0 mm | 3.13 m/s, 206° | 93 W/m² | - |
* Rain latest hour (hover to see other rain measurements)
** Current wind speed in m/s (hover to see current wind gust speed)